| time (UTC) | temp C | wind direction | speed KPH | gust KPH | rain 1hr cm | rain 24hr cm | rain mn cm | humidity % | barometer mb |
| 20260902161409 | 20 | 286 | 4.8 | 11.3 | 0.00 | 0.15 | 0.15 | 77 | 1018.8 |
| 20260902160409 | 20 | 277 | 4.8 | 9.7 | 0.00 | 0.15 | 0.15 | 76 | 1018.9 |
| 20260902154409 | 21 | 209 | 3.2 | 11.3 | 0.00 | 0.15 | 0.15 | 79 | 1019.0 |
| 20260902152409 | 20 | 184 | 3.2 | 6.4 | 0.00 | 0.15 | 0.15 | 84 | 1019.0 |
| 20260902151410 | 20 | 205 | 4.8 | 8.0 | 0.00 | 0.15 | 0.15 | 86 | 1019.0 |
| 20260902150409 | 19 | 162 | 3.2 | 8.0 | 0.00 | 0.15 | 0.15 | 87 | 1019.0 |
| 20260902145410 | 19 | 182 | 1.6 | 4.8 | 0.00 | 0.15 | 0.15 | 88 | 1019.2 |
| 20260902143409 | 19 | 236 | 1.6 | 9.7 | 0.00 | 0.15 | 0.15 | 85 | 1019.2 |
| 20260902142502 | 20 | 309 | 1.6 | 8.0 | 0.03 | 0.15 | 0.15 | 85 | 1019.1 |
| 20260902141401 | 18 | 153 | 1.6 | 4.8 | 0.05 | 0.15 | 0.15 | 92 | 1019.2 |
| 20260902135401 | 16 | 167 | 3.2 | 8.0 | 0.15 | 0.15 | 0.15 | 92 | 1019.3 |
| 20260902134402 | 16 | 180 | 3.2 | 4.8 | 0.15 | 0.15 | 0.15 | 92 | 1019.3 |
| 20260902133401 | 16 | 285 | 0.0 | 1.6 | 0.15 | 0.15 | 0.15 | 91 | 1019.5 |
| 20260902132401 | 16 | 327 | 4.8 | 12.9 | 0.13 | 0.13 | 0.13 | 87 | 1019.6 |
| 20260902131401 | 18 | 310 | 14.5 | 25.7 | 0.08 | 0.08 | 0.08 | 81 | 1019.7 |
| 20260902125403 | 21 | 286 | 4.8 | 17.7 | 0.00 | 0.00 | 0.00 | 73 | 1019.0 |
| 20260902123403 | 21 | 281 | 6.4 | 12.9 | 0.00 | 0.00 | 0.00 | 71 | 1019.0 |
| 20260902122401 | 21 | 246 | 6.4 | 16.1 | 0.00 | 0.00 | 0.00 | 72 | 1019.0 |
| 20260902121401 | 21 | 191 | 9.7 | 20.9 | 0.00 | 0.00 | 0.00 | 73 | 1019.1 |
| 20260902120401 | 21 | 273 | 6.4 | 17.7 | 0.00 | 0.00 | 0.00 | 72 | 1019.1 |
| 20260902115403 | 21 | 197 | 6.4 | 17.7 | 0.00 | 0.00 | 0.00 | 71 | 1019.1 |
| 20260902113401 | 21 | 244 | 8.0 | 19.3 | 0.00 | 0.00 | 0.00 | 70 | 1019.3 |
| 20260902112403 | 21 | 321 | 4.8 | 12.9 | 0.00 | 0.00 | 0.00 | 71 | 1019.2 |
| 20260902111401 | 21 | 281 | 6.4 | 16.1 | 0.00 | 0.00 | 0.00 | 73 | 1019.3 |
| 20260902105406 | 21 | 155 | 8.0 | 16.1 | 0.00 | 0.00 | 0.00 | 71 | 1019.2 |
| 20260902104406 | 21 | 163 | 4.8 | 20.9 | 0.00 | 0.00 | 0.00 | 72 | 1019.3 |
| 20260902103408 | 21 | 233 | 6.4 | 17.7 | 0.00 | 0.00 | 0.00 | 73 | 1019.4 |
| 20260902102406 | 21 | 155 | 6.4 | 19.3 | 0.00 | 0.00 | 0.00 | 76 | 1019.4 |
| 20260902100406 | 20 | 166 | 9.7 | 24.1 | 0.00 | 0.00 | 0.00 | 78 | 1019.4 |
| 20260902095406 | 20 | 254 | 8.0 | 17.7 | 0.00 | 0.00 | 0.00 | 79 | 1019.4 |
| 20260902094406 | 20 | 277 | 9.7 | 19.3 | 0.00 | 0.00 | 0.00 | 79 | 1019.4 |
| 20260902093406 | 20 | 213 | 6.4 | 14.5 | 0.00 | 0.00 | 0.00 | 80 | 1019.5 |
| 20260902092406 | 20 | 295 | 6.4 | 19.3 | 0.00 | 0.00 | 0.00 | 80 | 1019.4 |
| 20260902091406 | 19 | 294 | 4.8 | 14.5 | 0.00 | 0.00 | 0.00 | 81 | 1019.4 |
| 20260902090406 | 19 | 182 | 6.4 | 16.1 | 0.00 | 0.00 | 0.00 | 81 | 1019.4 |
| 20260902085407 | 18 | 194 | 6.4 | 17.7 | 0.00 | 0.00 | 0.00 | 81 | 1019.4 |
| 20260902084406 | 18 | 139 | 6.4 | 16.1 | 0.00 | 0.00 | 0.00 | 81 | 1019.4 |
| 20260902082406 | 18 | 197 | 6.4 | 14.5 | 0.00 | 0.00 | 0.00 | 82 | 1019.3 |
| 20260902081407 | 17 | 231 | 8.0 | 16.1 | 0.00 | 0.00 | 0.00 | 83 | 1019.2 |
| 20260902080406 | 17 | 192 | 6.4 | 14.5 | 0.00 | 0.00 | 0.00 | 83 | 1019.2 |
| 20260902075406 | 17 | 224 | 3.2 | 9.7 | 0.00 | 0.00 | 0.00 | 84 | 1019.2 |
| 20260902074406 | 16 | 211 | 6.4 | 12.9 | 0.00 | 0.00 | 0.00 | 85 | 1019.1 |
| 20260902073406 | 16 | 190 | 6.4 | 12.9 | 0.00 | 0.00 | 0.00 | 85 | 1019.1 |
| 20260902072407 | 16 | 153 | 4.8 | 12.9 | 0.00 | 0.00 | 0.00 | 85 | 1019.1 |
| 20260902071406 | 15 | 171 | 4.8 | 11.3 | 0.00 | 0.00 | 0.00 | 85 | 1019.2 |
| 20260902070407 | 15 | 175 | 4.8 | 11.3 | 0.00 | 0.00 | 0.00 | 86 | 1019.1 |
| 20260902065406 | 15 | 198 | 6.4 | 11.3 | 0.00 | 0.00 | 0.00 | 87 | 1019.1 |
| 20260902064406 | 14 | 173 | 4.8 | 11.3 | 0.00 | 0.00 | 0.00 | 88 | 1019.1 |
| 20260902063406 | 14 | 171 | 4.8 | 11.3 | 0.00 | 0.00 | 0.00 | 89 | 1019.2 |
| 20260902062406 | 13 | 175 | 4.8 | 8.0 | 0.00 | 0.00 | 0.00 | 90 | 1019.2 |
| 20260902061406 | 13 | 163 | 4.8 | 9.7 | 0.00 | 0.00 | 0.00 | 90 | 1019.2 |
| 20260902060406 | 13 | 165 | 3.2 | 8.0 | 0.00 | 0.00 | 0.00 | 92 | 1019.3 |
| 20260902055406 | 13 | 179 | 4.8 | 8.0 | 0.00 | 0.00 | 0.00 | 92 | 1019.3 |
| 20260902053406 | 12 | 137 | 4.8 | 11.3 | 0.00 | 0.00 | 0.00 | 93 | 1019.2 |
| 20260902052406 | 12 | 178 | 4.8 | 8.0 | 0.00 | 0.00 | 0.00 | 93 | 1019.2 |
| 20260902045406 | 12 | 181 | 4.8 | 8.0 | 0.00 | 0.00 | 0.00 | 94 | 1019.0 |
| 20260902044407 | 12 | 171 | 4.8 | 11.3 | 0.00 | 0.00 | 0.00 | 94 | 1019.1 |
| 20260902043406 | 12 | 163 | 3.2 | 8.0 | 0.00 | 0.00 | 0.00 | 94 | 1019.1 |
| 20260902042406 | 12 | 188 | 1.6 | 3.2 | 0.00 | 0.00 | 0.00 | 94 | 1019.2 |
| 20260902041407 | 12 | 193 | 1.6 | 6.4 | 0.00 | 0.00 | 0.00 | 94 | 1019.2 |
| 20260902040407 | 12 | 163 | 3.2 | 8.0 | 0.00 | 0.00 | 0.00 | 95 | 1019.3 |
| 20260902035407 | 12 | 153 | 3.2 | 6.4 | 0.00 | 0.00 | 0.00 | 95 | 1019.3 |
| 20260902034406 | 12 | 150 | 4.8 | 9.7 | 0.00 | 0.00 | 0.00 | 95 | 1019.4 |
| 20260902033406 | 12 | 161 | 3.2 | 6.4 | 0.00 | 0.00 | 0.00 | 95 | 1019.5 |
| 20260902031407 | 12 | 167 | 3.2 | 6.4 | 0.00 | 0.00 | 0.00 | 95 | 1019.7 |
| 20260902030406 | 12 | 157 | 3.2 | 8.0 | 0.00 | 0.00 | 0.00 | 95 | 1019.6 |
| 20260902025406 | 12 | 183 | 3.2 | 9.7 | 0.00 | 0.00 | 0.00 | 95 | 1019.7 |
| 20260902024406 | 12 | 159 | 4.8 | 8.0 | 0.00 | 0.00 | 0.00 | 95 | 1019.8 |
| 20260902022407 | 12 | 163 | 4.8 | 9.7 | 0.00 | 0.00 | 0.00 | 96 | 1019.8 |
| 20260902021407 | 11 | 166 | 3.2 | 6.4 | 0.00 | 0.00 | 0.00 | 96 | 1019.9 |
| 20260902020407 | 11 | 167 | 1.6 | 4.8 | 0.00 | 0.00 | 0.00 | 96 | 1019.7 |
| 20260902015406 | 11 | 169 | 1.6 | 6.4 | 0.00 | 0.00 | 0.00 | 96 | 1019.7 |
| 20260902014408 | 11 | 168 | 3.2 | 6.4 | 0.00 | 0.00 | 0.00 | 95 | 1019.7 |
| 20260902012407 | 11 | 177 | 1.6 | 3.2 | 0.00 | 0.00 | 0.00 | 95 | 1019.8 |
| 20260902011407 | 11 | 184 | 0.0 | 3.2 | 0.00 | 0.00 | 0.00 | 95 | 1019.9 |
| 20260902005407 | 11 | 185 | 0.0 | 3.2 | 0.00 | 0.00 | 0.00 | 95 | 1019.9 |
| 20260902004407 | 11 | 202 | 1.6 | 4.8 | 0.00 | 0.00 | 0.00 | 95 | 1019.9 |
| 20260902003407 | 11 | 250 | 0.0 | 3.2 | 0.00 | 0.00 | 0.00 | 94 | 1020.0 |
| 20260902002407 | 11 | 250 | 0.0 | 1.6 | 0.00 | 0.00 | 0.00 | 95 | 1019.9 |
| 20260902001407 | 11 | 250 | 0.0 | 0.0 | 0.00 | 0.00 | 0.00 | 94 | 1019.9 |
| 20260902000408 | 11 | 250 | 0.0 | 0.0 | 0.00 | 0.00 | 0.00 | 94 | 1020.0 |
| 20260901235407 | 11 | 250 | 0.0 | 0.0 | 0.00 | 0.00 | 0.00 | 94 | 1020.0 |
| 20260901234407 | 11 | 250 | 0.0 | 1.6 | 0.00 | 0.00 | 0.00 | 94 | 1019.9 |
| 20260901233407 | 11 | 250 | 0.0 | 0.0 | 0.00 | 0.00 | 0.00 | 94 | 1019.9 |
| 20260901232407 | 11 | 250 | 0.0 | 1.6 | 0.00 | 0.00 | 0.00 | 93 | 1019.8 |
| 20260901230407 | 12 | 250 | 0.0 | 0.0 | 0.00 | 0.00 | 0.00 | 93 | 1020.1 |
| 20260901224407 | 12 | 250 | 0.0 | 1.6 | 0.00 | 0.00 | 0.00 | 93 | 1020.3 |
| 20260901223407 | 12 | 250 | 0.0 | 1.6 | 0.00 | 0.00 | 0.00 | 93 | 1020.3 |
| 20260901222408 | 12 | 263 | 0.0 | 0.0 | 0.00 | 0.00 | 0.00 | 93 | 1020.6 |
| 20260901221407 | 12 | 263 | 0.0 | 1.6 | 0.00 | 0.00 | 0.00 | 93 | 1020.6 |
| 20260901220407 | 12 | 263 | 0.0 | 1.6 | 0.00 | 0.00 | 0.00 | 93 | 1020.7 |
| 20260901215411 | 12 | 263 | 0.0 | 1.6 | 0.00 | 0.00 | 0.00 | 93 | 1020.6 |
| 20260901214410 | 12 | 263 | 0.0 | 1.6 | 0.00 | 0.00 | 0.00 | 92 | 1020.7 |
| 20260901213411 | 12 | 263 | 0.0 | 0.0 | 0.00 | 0.00 | 0.00 | 92 | 1020.8 |
| 20260901212410 | 12 | 263 | 0.0 | 3.2 | 0.00 | 0.00 | 0.00 | 92 | 1020.8 |
| 20260901211410 | 12 | 263 | 0.0 | 1.6 | 0.00 | 0.00 | 0.00 | 92 | 1020.8 |
| 20260901205410 | 13 | 263 | 0.0 | 1.6 | 0.00 | 0.00 | 0.00 | 91 | 1020.6 |
| 20260901204411 | 13 | 263 | 0.0 | 1.6 | 0.00 | 0.00 | 0.00 | 91 | 1020.4 |
| 20260901203410 | 13 | 263 | 0.0 | 1.6 | 0.00 | 0.00 | 0.00 | 90 | 1020.4 |
| 20260901202410 | 13 | 263 | 0.0 | 1.6 | 0.00 | 0.00 | 0.00 | 89 | 1020.3 |
| 20260901201411 | 13 | 263 | 0.0 | 0.0 | 0.00 | 0.00 | 0.00 | 88 | 1020.2 |
| 20260901200410 | 13 | 263 | 0.0 | 1.6 | 0.00 | 0.00 | 0.00 | 88 | 1020.3 |
| 20260901195410 | 13 | 263 | 0.0 | 1.6 | 0.00 | 0.00 | 0.00 | 87 | 1020.3 |
| 20260901194410 | 14 | 263 | 0.0 | 3.2 | 0.00 | 0.00 | 0.00 | 86 | 1020.2 |
| 20260901193410 | 14 | 263 | 0.0 | 1.6 | 0.00 | 0.00 | 0.00 | 85 | 1020.2 |
| 20260901192410 | 15 | 263 | 0.0 | 3.2 | 0.00 | 0.00 | 0.00 | 84 | 1020.3 |
| 20260901190410 | 15 | 265 | 0.0 | 4.8 | 0.00 | 0.00 | 0.00 | 82 | 1020.3 |
| 20260901183410 | 16 | 273 | 1.6 | 4.8 | 0.00 | 0.00 | 0.00 | 77 | 1020.2 |
| 20260901182410 | 17 | 275 | 3.2 | 6.4 | 0.00 | 0.00 | 0.00 | 75 | 1020.1 |
| 20260901181410 | 17 | 300 | 3.2 | 9.7 | 0.00 | 0.00 | 0.00 | 74 | 1020.0 |
| 20260901180410 | 17 | 264 | 4.8 | 12.9 | 0.00 | 0.00 | 0.00 | 74 | 1020.1 |
| 20260901175410 | 17 | 275 | 6.4 | 16.1 | 0.00 | 0.00 | 0.00 | 73 | 1020.0 |
| 20260901174410 | 18 | 312 | 4.8 | 11.3 | 0.00 | 0.00 | 0.00 | 73 | 1019.9 |
| 20260901172410 | 18 | 311 | 3.2 | 9.7 | 0.00 | 0.00 | 0.00 | 71 | 1019.8 |
| 20260901170411 | 19 | 286 | 4.8 | 12.9 | 0.00 | 0.00 | 0.00 | 69 | 1019.6 |
| 20260901165410 | 19 | 289 | 3.2 | 14.5 | 0.00 | 0.00 | 0.00 | 70 | 1019.5 |
| 20260901164410 | 19 | 290 | 6.4 | 12.9 | 0.00 | 0.00 | 0.00 | 68 | 1019.5 |
| 20260901163410 | 20 | 287 | 9.7 | 20.9 | 0.00 | 0.00 | 0.00 | 65 | 1019.5 |